Total_Precipitation_Accumulation
0.73 1.03 1.11 0.93 0.94 1.00 0.93 0.94 1.00 0.93 0.79 0.89 0.90 0.85 0.89 0.81 0.66 0.53 0.50 0.55 0.51 0.47 0.48 0.42 0.39 0.46 0.46 0.41 0.38 0.43 0.50 0.53 0.54 0.66 0.80 0.91 1.00 1.14 1.32 1.37 1.44 1.59 1.65 1.65
0.81 0.84 0.68 0.70 0.76 0.85 0.86 0.86 0.90 0.80 0.69 0.73 0.82 0.87 0.85 0.76 0.68 0.57 0.49 0.42 0.40 0.40 0.38 0.34 0.33 0.35 0.38 0.38 0.36 0.39 0.49 0.58 0.63 0.69 0.84 1.01 1.24 1.33 1.46 1.64 1.65 1.66 1.73 1.78
0.70 0.60 0.53 0.61 0.73 0.80 0.82 0.78 0.72 0.75 0.72 0.71 0.78 0.99 0.91 0.82 0.67 0.56 0.48 0.38 0.32 0.34 0.33 0.27 0.29 0.31 0.33 0.35 0.42 0.45 0.56 0.76 0.93 1.01 1.23 1.54 1.80 1.85 1.80 1.82 1.90 1.88 1.90 1.96
0.73 0.54 0.53 0.63 0.66 0.69 0.84 0.60 0.53 0.64 0.80 0.92 0.75 1.08 0.90 0.81 0.73 0.56 0.48 0.42 0.34 0.38 0.41 0.32 0.30 0.33 0.31 0.36 0.50 0.68 0.88 1.18 1.40 1.50 1.67 1.91 2.02 2.05 1.99 2.00 2.01 2.04 1.96 1.88
0.73 0.56 0.56 0.63 0.59 0.54 0.66 0.54 0.54 0.63 0.76 0.80 0.67 0.82 0.79 0.66 0.73 0.63 0.57 0.51 0.45 0.46 0.45 0.46 0.45 0.50 0.51 0.61 0.82 1.17 1.44 1.64 1.76 1.80 1.86 2.05 2.19 2.36 2.40 2.28 2.13 2.07 2.07 2.00
0.64 0.56 0.59 0.63 0.55 0.48 0.55 0.63 0.67 0.69 0.81 0.96 0.64 0.64 0.78 0.64 0.61 0.63 0.64 0.57 0.51 0.49 0.50 0.60 0.73 0.87 0.94 1.03 1.24 1.48 1.63 1.78 1.76 1.72 1.75 1.86 2.06 2.23 2.25 2.29 2.26 2.16 2.09 2.01
0.66 0.62 0.57 0.53 0.60 0.58 0.61 0.82 1.07 1.11 1.09 0.92 0.54 0.64 0.68 0.48 0.45 0.52 0.58 0.57 0.53 0.50 0.60 0.82 0.99 1.13 1.23 1.33 1.44 1.48 1.47 1.54 1.56 1.52 1.51 1.58 1.68 1.72 1.77 1.90 1.83 1.71 1.63 1.59
0.54 0.60 0.50 0.43 0.47 0.53 0.57 0.63 0.95 1.08 0.96 0.80 0.60 0.79 0.69 0.51 0.50 0.44 0.48 0.56 0.64 0.74 0.87 1.01 1.12 1.23 1.28 1.41 1.46 1.42 1.38 1.36 1.30 1.23 1.24 1.24 1.30 1.39 1.39 1.39 1.36 1.28 1.25 1.23
0.41 0.47 0.39 0.36 0.34 0.41 0.49 0.49 0.54 0.74 0.71 0.75 0.69 0.79 0.70 0.50 0.48 0.44 0.45 0.55 0.70 0.88 1.12 1.31 1.31 1.23 1.18 1.23 1.31 1.28 1.23 1.17 1.08 1.00 1.02 1.03 1.11 1.15 1.12 1.07 1.02 1.02 0.95 0.95
0.34 0.45 0.43 0.39 0.37 0.39 0.40 0.44 0.57 0.86 1.01 1.00 0.81 0.89 0.84 0.64 0.56 0.52 0.55 0.67 0.83 1.00 1.21 1.49 1.60 1.48 1.23 1.06 1.10 1.06 1.05 1.10 1.09 1.03 1.03 1.00 0.93 0.86 0.83 0.83 0.77 0.77 0.83 0.84
0.27 0.39 0.41 0.40 0.41 0.42 0.42 0.48 0.60 0.80 0.83 1.09 1.31 1.26 0.93 0.81 0.74 0.71 0.75 0.81 0.89 1.13 1.43 1.55 1.57 1.44 1.28 1.02 0.96 0.95 0.95 0.99 1.06 0.99 1.01 0.99 0.88 0.75 0.70 0.65 0.60 0.61 0.65 0.70
0.25 0.38 0.40 0.35 0.32 0.30 0.37 0.47 0.64 0.98 0.97 0.94 1.16 1.17 0.74 0.78 0.89 0.83 0.88 0.96 0.99 1.07 1.13 1.12 1.20 1.20 1.14 1.01 0.95 1.02 1.06 1.07 1.02 0.96 0.93 0.90 0.84 0.74 0.73 0.66 0.59 0.60 0.65 0.67
0.25 0.37 0.46 0.45 0.42 0.37 0.47 0.53 0.51 0.70 0.88 0.91 1.09 1.10 0.68 0.66 0.78 0.83 0.92 0.95 0.95 0.94 0.87 0.80 0.89 1.03 0.97 0.91 0.94 1.03 1.17 1.19 1.12 1.01 0.92 0.89 0.84 0.83 0.86 0.74 0.65 0.65 0.73 0.84
0.21 0.30 0.34 0.41 0.39 0.42 0.68 0.77 0.57 0.69 0.91 0.77 0.74 0.81 0.64 0.61 0.70 0.77 0.86 0.88 0.84 0.78 0.72 0.67 0.61 0.67 0.69 0.71 0.72 0.85 1.11 1.34 1.31 1.18 1.05 0.97 0.92 0.92 0.89 0.76 0.70 0.66 0.69 0.73
0.23 0.24 0.19 0.17 0.18 0.25 0.46 0.52 0.44 0.47 0.48 0.55 0.50 0.53 0.62 0.68 0.71 0.72 0.75 0.68 0.61 0.58 0.53 0.48 0.44 0.43 0.44 0.49 0.57 0.69 0.99 1.22 1.21 1.18 1.04 0.93 0.86 0.80 0.74 0.72 0.74 0.69 0.63 0.61
0.21 0.22 0.17 0.15 0.14 0.16 0.19 0.15 0.16 0.19 0.25 0.33 0.39 0.50 0.55 0.58 0.58 0.64 0.64 0.50 0.49 0.50 0.47 0.45 0.39 0.35 0.32 0.32 0.40 0.50 0.69 0.88 0.95 0.97 0.91 0.79 0.77 0.70 0.62 0.66 0.75 0.75 0.64 0.58
0.23 0.25 0.27 0.21 0.16 0.18 0.16 0.10 0.16 0.21 0.23 0.29 0.43 0.55 0.58 0.61 0.68 0.99 1.00 0.69 0.55 0.54 0.48 0.47 0.44 0.40 0.37 0.35 0.36 0.39 0.46 0.57 0.64 0.66 0.66 0.57 0.57 0.67 0.69 0.72 0.72 0.65 0.56 0.59
0.22 0.27 0.35 0.28 0.27 0.31 0.17 0.10 0.16 0.20 0.22 0.24 0.28 0.31 0.35 0.48 0.61 0.77 0.85 0.72 0.59 0.56 0.48 0.46 0.43 0.37 0.35 0.34 0.34 0.37 0.39 0.42 0.42 0.39 0.37 0.34 0.43 0.57 0.59 0.56 0.54 0.49 0.49 0.54
0.17 0.26 0.38 0.35 0.44 0.34 0.14 0.10 0.13 0.14 0.16 0.14 0.17 0.16 0.18 0.23 0.23 0.24 0.28 0.32 0.33 0.30 0.27 0.27 0.28 0.25 0.23 0.24 0.25 0.25 0.23 0.25 0.24 0.21 0.22 0.26 0.28 0.32 0.32 0.30 0.32 0.38 0.45 0.50
0.17 0.22 0.36 0.40 0.45 0.34 0.16 0.10 0.08 0.13 0.21 0.14 0.13 0.12 0.11 0.13 0.19 0.16 0.21 0.15 0.11 0.11 0.11 0.14 0.20 0.23 0.21 0.21 0.23 0.23 0.22 0.22 0.22 0.22 0.23 0.25 0.25 0.28 0.28 0.28 0.29 0.33 0.38 0.43
0.24 0.27 0.29 0.32 0.42 0.25 0.12 0.11 0.11 0.21 0.21 0.10 0.08 0.06 0.06 0.07 0.09 0.10 0.15 0.12 0.06 0.09 0.11 0.13 0.16 0.20 0.21 0.20 0.21 0.20 0.19 0.22 0.27 0.28 0.26 0.25 0.25 0.27 0.32 0.35 0.35 0.34 0.34 0.37
0.25 0.31 0.28 0.28 0.35 0.27 0.12 0.13 0.18 0.18 0.10 0.09 0.08 0.07 0.06 0.06 0.06 0.06 0.09 0.10 0.06 0.07 0.09 0.13 0.15 0.18 0.21 0.21 0.21 0.21 0.20 0.21 0.27 0.29 0.27 0.27 0.28 0.28 0.32 0.40 0.40 0.38 0.37 0.35
0.19 0.24 0.28 0.29 0.27 0.18 0.14 0.15 0.16 0.16 0.14 0.11 0.10 0.09 0.06 0.06 0.05 0.05 0.07 0.12 0.08 0.06 0.08 0.12 0.15 0.18 0.20 0.22 0.25 0.26 0.25 0.25 0.27 0.28 0.29 0.29 0.30 0.30 0.32 0.35 0.37 0.39 0.38 0.39
0.14 0.14 0.21 0.22 0.16 0.12 0.14 0.15 0.14 0.13 0.13 0.12 0.13 0.13 0.11 0.10 0.09 0.08 0.08 0.12 0.11 0.09 0.08 0.10 0.12 0.16 0.22 0.25 0.26 0.30 0.31 0.32 0.32 0.32 0.33 0.33 0.34 0.34 0.35 0.37 0.40 0.42 0.43 0.44
0.12 0.14 0.18 0.19 0.12 0.10 0.11 0.13 0.15 0.13 0.12 0.13 0.13 0.14 0.14 0.15 0.14 0.12 0.11 0.11 0.11 0.13 0.13 0.12 0.13 0.15 0.20 0.25 0.28 0.33 0.34 0.37 0.36 0.35 0.36 0.37 0.37 0.37 0.39 0.41 0.44 0.45 0.44 0.46
0.07 0.11 0.16 0.17 0.12 0.12 0.11 0.11 0.13 0.16 0.14 0.13 0.12 0.12 0.14 0.14 0.14 0.13 0.13 0.13 0.13 0.14 0.14 0.14 0.14 0.14 0.16 0.18 0.20 0.25 0.28 0.32 0.35 0.38 0.36 0.34 0.37 0.40 0.39 0.40 0.40 0.43 0.45 0.47